Regional Weather Roundup
Issued by NWS Kansas City/Pleasant Hill, MO

Home | Current Version | Previous Version | Graphics & Text | Print | Product List | Glossary Off
Versions: 1 2 3 4 5 6 7 8 9 10 11 12 13 14 15 16 17 18 19 20 21 22 23 24 25 26 27

000
ASUS43 KEAX 180110
RWREAX

WEATHER ROUNDUP FOR EASTERN KANSAS AND NORTHWEST MISSOURI
NATIONAL WEATHER SERVICE KANSAS CITY/PLEASANT HILL MO
700 PM CST TUE JAN 17 2017

KSZ040-057-103>105-MOZ028-029-037-043-180200-
...KANSAS CITY METROPOLITAN AREA...

CITY           SKY/WX    TMP DP  RH WIND       PRES   REMARKS
K.C. INTL      CLEAR     34  29  82 CALM      30.14R
K.C. DOWNTOWN  CLEAR     35  32  88 CALM      30.15R
LEES SUMMIT    CLEAR     37  33  85 CALM      30.15R
OLATHE - IXD   CLEAR     36  33  89 E5        30.15R WCI  32
OLATHE - OJC   CLEAR     32  32 100 CALM      30.15R
LAWRENCE       CLEAR     31  30  96 CALM      30.15R

$$

MOZ001>008-011>017-020>025-030>033-038>040-044>046-053-054-180200-
...NORTHERN AND CENTRAL MISSOURI...

CITY           SKY/WX    TMP DP  RH WIND       PRES   REMARKS
ST. JOSEPH     CLEAR     30  30 100 S5        30.14S WCI  25
MOSBY          CLOUDY    36  32  87 CALM      30.15S
WARRENSBURG    CLOUDY    37  34  87 S3        30.17R
WHITEMAN AFB   CLOUDY    38  38 100 W3        30.16R
CLINTON        CLOUDY    37  36  93 SW5       30.18R WCI  34
SEDALIA        CLOUDY    39  36  89 W5        30.18R
WARSAW         NOT AVBL
CHILLICOTHE      N/A     37  33  85 NW5       30.16R WCI  33
KIRKSVILLE     CLOUDY    37  35  92 W6        30.12R WCI  32

$$

MOZ041-047>049-056>058-063>065-088>090-097-180200-
...EASTERN AND SOUTHERN MISSOURI...

CITY           SKY/WX    TMP DP  RH WIND       PRES   REMARKS
ST. LOUIS INTL CLOUDY    42  35  76 W12       30.15R
SPIRIT OF STL  CLOUDY    41  37  86 W9        30.15R
COLUMBIA       CLOUDY    38  37  97 W6        30.15S WCI  33
JEFFERSON CITY CLOUDY    40  35  83 W8        30.17R WCI  34
ROLLA          CLOUDY    37  35  92 W9        30.14R WCI  30
OSAGE BEACH    CLOUDY    38  35  89 W5        30.18R WCI  34
SPRINGFIELD    CLOUDY    38  35  89 W8        30.17R WCI  32
BRANSON        CLOUDY    39  36  87 W5        30.19R
JOPLIN         CLOUDY    39  36  89 NW3       30.20R
WEST PLAINS    CLOUDY    40  37  89 W6        30.18R

$$

IAZ060-094-KSZ022-034>040-054-083-096-NEZ052-066-093-180200-
...KANSAS...SOUTHEAST NEBRASKA AND IOWA...

CITY           SKY/WX    TMP DP  RH WIND       PRES   REMARKS
TOPEKA         CLEAR     35  30  82 CALM      30.14R
MANHATTAN      CLEAR     31  26  82 CALM      30.13R
EMPORIA        CLEAR     39  30  70 SW5       30.13R
CHANUTE        CLEAR     38  34  85 S10       30.18R WCI  31
WICHITA        CLEAR     37  31  78 S5        30.15R WCI  33
OMAHA          CLEAR     28  23  81 S7        30.11R WCI  21
LINCOLN        CLEAR     30  29  96 S3        30.11S
FALLS CITY     CLEAR     31  30  96 CALM      30.12S
LAMONI         CLOUDY    34  32  92 W9        30.11R WCI  27
DES MOINES     CLOUDY    34  32  92 W9        30.10R FOG     WCI  27

$$





USA.gov is the U.S. government's official web portal to all federal, state and local government web resources and services.